User: anonymous   Login
Location: Earls Croome
(52.0667°N, 2.2000°W)
Time: 17:17:40
(UTC+00:00)
Language:

Cosmos 1238 Rocket - Orbit

View from above orbital plane
View from above orbital plane
View from above satellite
View from above satellite

Ground track
Ground track

The orbit data is extracted from the following two-line orbital elements,

1 12139U 81003B   20025.50150419  .00001388  00000-0  64931-4 0  9999
2 12139  82.9457  82.1687 0463689 332.7631  24.9912 14.56777957985496
Epoch (UTC): 25 January 2020 12:02:09
Eccentricity: 0.0463689
inclination: 82.9457°
perigee height: 375 km
apogee height: 1032 km
right ascension of ascending node: 82.1687°
argument of perigee: 332.7631°
revolutions per day: 14.56777957
mean anomaly at epoch: 24.9912°
orbit number at epoch: 98549

The dashed part of the orbit path shows where the satellite is in the earth's shadow,  

DLR